Location: Brantley
(31.5822°N, 86.2569°W)
Time: 21:23:37
(UTC+00:00)

Injun/Solrad 3 - Pass Details

Date: 19 February 2026
Orbit: 872 x 984 km, 66.8° (Epoch: 6 March)

Event Time Altitude Azimuth Distance (km) Brightness Sun altitude
Rises 14:33:55 0° 153° (SSE) 3,445 11.8 25.0°
Reaches altitude 10° 14:38:09 10° 124° (ESE) 2,512 12.1 25.7°
Maximum altitude 14:40:12 12° 102° (ESE) 2,378 11.5 26.1°
Drops below altitude 10° 14:42:16 10° 81° (E) 2,523 11.0 26.5°
Sets 14:46:32 0° 52° (NE) 3,481 11.1 27.2°
